Regional Weather Roundup
Issued by NWS

Home | Current Version | Previous Version | Text Only | Print | Product List | Glossary On
Versions: 1 2 3 4 5 6 7 8 9 10 11 12 13 14 15 16 17 18 19 20 21 22 23 24 25 26 27 28
000
ASCA42 TJSJ 111610
RWRPR
PUERTO RICO/U.S. VIRGIN ISLANDS HOURLY WEATHER ROUNDUP
NATIONAL WEATHER SERVICE SAN JUAN PR
1200 PM AST MON DEC 11 2017

PRZ001>002-007>008-010-111700-
PUERTO RICO

CITY           SKY/WX    TMP DP  RH WIND       PRES   REMARKS
SAN JUAN LMM   MOSUNNY   82  70  65 NE10      29.95F
AGUADILLA      PTSUNNY   84  66  54 E13G18    29.97F
$$

VIZ001>002-111700-
U.S. VIRGIN ISLANDS

CITY           SKY/WX    TMP DP  RH WIND       PRES   REMARKS
CHARLOTTE AMA    N/A    N/A N/A N/A MISG      29.94F
CHRISTIANSTED  PTSUNNY   82  73  74 NE12      29.94F
$$

HOURLY WEATHER ROUNDUP FOR THE NEWS MEDIA

CITY           SKY/WX    TMP DP  RH WIND       PRES   REMARKS
ORLANDO        SUNNY     55  30  38 NW7       30.28F
NEW YORK       MOSUNNY   37  25  61 W16       30.06R WCI  28
NEWARK         MOSUNNY   39  23  52 W12       30.04S WCI  32
CHICAGO        CLOUDY    32  22  66 S13       29.85F WCI  22
HARTFORD       PTSUNNY   37  26  64 W10       29.97F WCI  30
BOSTON         MOSUNNY   35  25  66 SW10      29.97F WCI  27
DALLAS         PTSUNNY   56  26  31 SW5       30.25F
PHILADELPHIA   MOSUNNY   41  22  46 W14       30.08S
LOS ANGELES    PTSUNNY   61  16  17 E6        30.20R
WASHINGTON DC  MOSUNNY   43  26  51 VRB5      30.09F



USA.gov is the U.S. government's official web portal to all federal, state and local government web resources and services.